Tracking 25707 objects as of 29-Jun-2022
HD Live streaming from Space Station
objects crossing your sky now

STARLINK-3917

Track STARLINK-3917 now!
10-day predictions
STARLINK-3917 is classified as:


NORAD ID: 52588
Int'l Code: 2022-051BE
Perigee: 356.9 km
Apogee: 359.3 km
Inclination: 53.2 °
Period: 91.6 minutes
Semi major axis: 6729 km
RCS: Unknown
Launch date: May 13, 2022
Source: United States (US)
Launch site: AIR FORCE WESTERN TEST RANGE (AFWTR)
aabbcc
Your satellite tracking list
Your tracking list is empty




NASA's NSSDC Master Catalog

Two Line Element Set (TLE):
1 52588U 22051BE  22180.58334491 -.01053793  00000-0 -84936-2 0  9990
2 52588  53.2174  62.1422 0001778  29.0975 231.8800 15.72781162  1300
Source of the keplerian elements: AFSPC